Weather History for Kill Devil Hills, NC

Change the Weather History Date:

Wednesday, January 30, 2013

  Actual Average (KMQI) Record (KMQI)
Temperature  
Mean Temperature 58 °F -  
Max Temperature 66 °F 48 °F 80 °F (2002)
Min Temperature 51 °F 36 °F 19 °F (1977)
Degree Days  
Heating Degree Days 6    
Growing Degree Days 8 (Base 50)    
Moisture  
Dew Point 55 °F    
Average Humidity 87    
Maximum Humidity 98    
Minimum Humidity 72    
Precipitation  
Precipitation 0.00 in - - ()
Sea Level Pressure  
Sea Level Pressure 29.91 in    
Wind  
Wind Speed 8 mph (SSW)    
Max Wind Speed 14 mph    
Max Gust Speed 30 mph    
Visibility 7 miles    
Events      
Averages and records for this station are not official NWS values.
T = Trace of Precipitation, MM = Missing Value Source: NWS Daily Summary

Daily Weather History Graph

Daily Weather History Graph

Search for Another Location

Airport:

Trip Planner

Search our weather history database for the weather conditions in past years. The results will help you decide how hot, cold, wet, or windy it might be!

Date:

Astronomy

Jan. 30, 2013 Rise Set
Actual Time 7:04 AM EST 5:27 PM EST
Civil Twilight 6:37 AM EST 5:54 PM EST
Nautical Twilight 6:06 AM EST 6:25 PM EST
Astronomical Twilight 5:36 AM EST 6:55 PM EST
Moon 9:14 PM EST (1/30) 8:39 AM EST (1/30)
Length of Visible Light 11h 17m
Length of Day
10h 23m
Waning Gibbous, 88% of the Moon is Illuminated
Jan 30
Waning Gibbous
Feb 3
Last Quarter
Feb 10
New
Feb 17
First Quarter
Feb 25
Full

Hourly Weather History & Observations

Time (EST) Temp. Dew Point Humidity Pressure Visibility Wind Dir Wind Speed Gust Speed Precip Events Conditions
12:15 AM 52.9 °F 51.1 °F 94% 30.12 in 7.0 mi SSW 4.6 mph - N/A   Clear
12:35 AM 52.5 °F 51.1 °F 95% 30.12 in 5.0 mi SW 5.8 mph - N/A   Clear
12:55 AM 51.6 °F 50.4 °F 95% 30.11 in 5.0 mi SSW 4.6 mph - N/A   Clear
1:35 AM 53.2 °F 52.2 °F 96% 30.09 in 7.0 mi SSW 6.9 mph - N/A   Clear
1:55 AM 53.8 °F 52.3 °F 95% 30.08 in 7.0 mi SSW 6.9 mph - N/A   Clear
2:15 AM 53.4 °F 52.0 °F 95% 30.08 in 5.0 mi SSW 4.6 mph - N/A   Clear
2:35 AM 53.1 °F 51.8 °F 95% 30.08 in 5.0 mi SSW 5.8 mph - N/A   Clear
2:55 AM 53.1 °F 52.0 °F 96% 30.08 in 4.0 mi SSW 6.9 mph - N/A   Clear
3:15 AM 53.1 °F 52.2 °F 97% 30.06 in 4.0 mi SSW 6.9 mph - N/A   Clear
3:35 AM 53.8 °F 52.9 °F 97% 30.06 in 2.5 mi SSW 5.8 mph - N/A   Scattered Clouds
3:55 AM 54.0 °F 53.1 °F 97% 30.06 in 4.0 mi SSW 5.8 mph - N/A   Scattered Clouds
4:15 AM 54.3 °F 53.4 °F 97% 30.05 in 4.0 mi South 4.6 mph - N/A   Clear
4:35 AM 54.1 °F 53.2 °F 97% 30.05 in 2.0 mi South 5.8 mph - N/A   Mostly Cloudy
4:55 AM 53.6 °F 52.9 °F 97% 30.05 in 1.0 mi South 3.5 mph - N/A   Overcast
5:15 AM 53.6 °F 52.9 °F 97% 30.04 in 2.5 mi South 4.6 mph - N/A   Overcast
5:35 AM 54.0 °F 53.4 °F 98% 30.04 in 1.8 mi SSW 4.6 mph - N/A   Overcast
5:55 AM 54.5 °F 53.8 °F 97% 30.04 in 1.8 mi SW 6.9 mph - N/A   Overcast
6:15 AM 54.7 °F 54.0 °F 97% 30.05 in 1.2 mi SSW 3.5 mph - N/A   Overcast
6:55 AM 55.9 °F 55.2 °F 97% 30.05 in 4.0 mi SSW 9.2 mph - N/A   Clear
7:15 AM 55.2 °F 54.5 °F 97% 30.05 in 3.0 mi SSW 6.9 mph - N/A   Clear
7:35 AM 55.9 °F 55.0 °F 97% 30.04 in 7.0 mi SSW 8.1 mph - N/A   Clear
7:55 AM 57.2 °F 56.3 °F 97% 30.03 in 10.0 mi South 6.9 mph - N/A   Clear
8:15 AM 57.4 °F 56.7 °F 97% 30.03 in 10.0 mi SSW 8.1 mph - N/A   Clear
8:35 AM 57.6 °F 56.5 °F 96% 30.02 in 10.0 mi South 8.1 mph - N/A   Clear
8:55 AM 58.3 °F 55.9 °F 92% 30.01 in 10.0 mi South 8.1 mph 17.3 mph N/A   Clear
9:15 AM 59.2 °F 56.3 °F 90% 30.01 in 10.0 mi South 6.9 mph 16.1 mph N/A   Clear
9:35 AM 59.9 °F 57.0 °F 90% 30.01 in 10.0 mi South 8.1 mph - N/A   Clear
9:55 AM 60.6 °F 57.4 °F 89% 30.01 in 10.0 mi SSW 6.9 mph - N/A   Clear
10:15 AM 61.3 °F 57.4 °F 87% 30.00 in 10.0 mi SSW 6.9 mph - N/A   Clear
10:35 AM 62.6 °F 57.6 °F 84% 30.00 in 10.0 mi South 9.2 mph 18.4 mph N/A   Clear
10:55 AM 63.5 °F 57.6 °F 81% 29.98 in 10.0 mi South 9.2 mph 18.4 mph N/A   Clear
11:15 AM 64.2 °F 57.4 °F 78% 29.98 in 10.0 mi SSW 9.2 mph 18.4 mph N/A   Clear
11:35 AM 65.1 °F 57.4 °F 76% 29.97 in 10.0 mi South 9.2 mph 20.7 mph N/A   Clear
11:55 AM 66.4 °F 57.6 °F 73% 29.96 in 10.0 mi SSW 9.2 mph 19.6 mph N/A   Clear
12:15 PM 66.6 °F 57.6 °F 73% 29.95 in 10.0 mi South 9.2 mph 21.9 mph N/A   Clear
12:35 PM 66.6 °F 57.9 °F 74% 29.94 in 10.0 mi South 11.5 mph 20.7 mph N/A   Scattered Clouds
12:55 PM 66.6 °F 58.3 °F 75% 29.91 in 10.0 mi South 11.5 mph 21.9 mph N/A   Scattered Clouds
1:15 PM 66.6 °F 57.9 °F 74% 29.90 in 10.0 mi South 10.4 mph 18.4 mph N/A   Scattered Clouds
1:35 PM 66.0 °F 57.4 °F 74% 29.90 in 10.0 mi South 6.9 mph 20.7 mph N/A   Scattered Clouds
1:55 PM 65.5 °F 56.8 °F 74% 29.89 in 10.0 mi South 10.4 mph 21.9 mph N/A   Mostly Cloudy
2:15 PM 65.3 °F 56.5 °F 73% 29.88 in 10.0 mi South 11.5 mph 19.6 mph N/A   Scattered Clouds
2:35 PM 65.3 °F 56.1 °F 72% 29.87 in 10.0 mi South 8.1 mph 20.7 mph N/A   Clear
2:55 PM 64.6 °F 55.6 °F 73% 29.87 in 10.0 mi South 8.1 mph 19.6 mph N/A   Clear
3:15 PM 63.5 °F 55.2 °F 74% 29.86 in 10.0 mi SSW 9.2 mph 21.9 mph N/A   Mostly Cloudy
3:35 PM 63.1 °F 55.2 °F 75% 29.85 in 10.0 mi South 10.4 mph 20.7 mph N/A   Mostly Cloudy
3:55 PM 62.8 °F 55.6 °F 77% 29.84 in 10.0 mi South 12.7 mph 21.9 mph N/A   Mostly Cloudy
4:15 PM 62.4 °F 55.8 °F 79% 29.83 in 10.0 mi South 13.8 mph 24.2 mph N/A   Mostly Cloudy
4:35 PM 61.7 °F 55.8 °F 81% 29.82 in 10.0 mi South 12.7 mph 24.2 mph N/A   Mostly Cloudy
4:55 PM 61.7 °F 56.1 °F 82% 29.81 in 10.0 mi South 11.5 mph 23.0 mph N/A   Mostly Cloudy
5:15 PM 61.0 °F 55.8 °F 83% 29.81 in 10.0 mi South 12.7 mph 24.2 mph N/A   Mostly Cloudy
5:35 PM 60.6 °F 55.6 °F 83% 29.80 in 7.0 mi South 13.8 mph 21.9 mph N/A   Scattered Clouds
5:55 PM 60.1 °F 55.8 °F 86% 29.80 in 7.0 mi South 9.2 mph 21.9 mph N/A   Scattered Clouds
6:15 PM 59.9 °F 56.1 °F 87% 29.79 in 7.0 mi South 12.7 mph 23.0 mph N/A   Clear
6:35 PM 59.4 °F 55.8 °F 88% 29.79 in 7.0 mi South 10.4 mph 27.6 mph N/A   Clear
6:55 PM 59.2 °F 55.8 °F 88% 29.78 in 7.0 mi South 11.5 mph 25.3 mph N/A   Clear
7:15 PM 58.5 °F 55.6 °F 90% 29.77 in 7.0 mi South 13.8 mph 24.2 mph N/A   Clear
7:35 PM 58.8 °F 56.1 °F 91% 29.76 in 7.0 mi South 12.7 mph 26.5 mph N/A   Scattered Clouds
7:55 PM 58.8 °F 55.9 °F 90% 29.75 in 7.0 mi South 13.8 mph 23.0 mph N/A   Scattered Clouds
8:15 PM 59.0 °F 56.1 °F 90% 29.73 in 7.0 mi South 12.7 mph 29.9 mph N/A   Clear
8:35 PM 59.4 °F 56.3 °F 90% 29.72 in 7.0 mi South 12.7 mph 27.6 mph N/A   Clear
8:55 PM 58.6 °F 55.6 °F 90% 29.72 in 7.0 mi South 12.7 mph 25.3 mph N/A   Scattered Clouds
9:15 PM 58.8 °F 55.4 °F 88% 29.71 in 7.0 mi South 11.5 mph 27.6 mph N/A   Overcast
9:35 PM 59.0 °F 55.4 °F 88% 29.70 in 7.0 mi South 12.7 mph 24.2 mph N/A   Overcast
9:55 PM 59.4 °F 55.4 °F 87% 29.69 in 7.0 mi South 11.5 mph 26.5 mph N/A   Overcast
10:15 PM 59.2 °F 55.0 °F 86% 29.68 in 7.0 mi South 12.7 mph 24.2 mph N/A   Overcast
10:35 PM 59.4 °F 55.0 °F 86% 29.68 in 7.0 mi South 13.8 mph 26.5 mph N/A   Overcast
10:55 PM 59.9 °F 55.4 °F 85% 29.66 in 7.0 mi South 13.8 mph 24.2 mph N/A   Overcast
11:15 PM 60.3 °F 55.6 °F 85% 29.65 in 7.0 mi South 13.8 mph 26.5 mph N/A   Overcast
11:35 PM 60.8 °F 55.9 °F 84% 29.63 in 7.0 mi South 10.4 mph 24.2 mph N/A   Overcast
11:55 PM 60.6 °F 55.9 °F 85% 29.60 in 7.0 mi South 13.8 mph 29.9 mph N/A   Mostly Cloudy